Simultaneous Nadir Overpasses (SNOs) Predictions

Prediction of SNOs between GOES-16 and AQUA Satellite Orbit:

Table of predicted SNOs for the next 14.0 days since TLE Epoch: 12/1/2024
Index Date Time (GOES-16) GOES-16 Lat,Lon AQUA Lat,Lon Distance(km) Time Diff (sec)
1 12/01/2024 19:23:42 0.01, -75.20 0.10, -74.65 62.43 80
2 12/02/2024 07:43:17 -0.01, -75.20 0.90, -79.39 477.63 80
3 12/04/2024 07:21:58 0.00, -75.20 -0.06, -74.83 41.88 80
4 12/04/2024 19:41:42 0.00, -75.21 -0.93, -79.60 499.59 80
5 12/06/2024 19:25:41 -0.00, -75.22 0.03, -75.03 21.47 80
6 12/09/2024 07:26:34 -0.00, -75.23 -0.04, -75.19 5.88 80
7 12/11/2024 19:24:51 -0.00, -75.27 -0.05, -75.36 11.71 80
8 12/14/2024 07:28:19 0.00, -75.29 0.04, -75.51 24.31 80
